Weather History for Faith, SD

Change the Weather History Date:

Thursday, April 24, 2014

  Actual Average Record
Temperature  
Mean Temperature 50 °F 48 °F  
Max Temperature 63 °F 61 °F 87 °F (2012)
Min Temperature 37 °F 36 °F 25 °F (2013)
Degree Days  
Heating Degree Days 15 17  
Month to date heating degree days 515 517  
Since 1 July heating degree days 7719 7208  
Cooling Degree Days 0 0  
Month to date cooling degree days 0 0  
Year to date cooling degree days 0 0  
Moisture  
Dew Point 26 °F    
Average Humidity 43    
Maximum Humidity 64    
Minimum Humidity 22    
Precipitation  
Precipitation 0.00 in 0.07 in 0.11 in (2006)
Month to date precipitation 0.17 1.12  
Year to date precipitation 2.26 2.72  
Sea Level Pressure  
Sea Level Pressure 29.80 in    
Wind  
Wind Speed 17 mph (WNW)    
Max Wind Speed 37 mph    
Max Gust Speed 46 mph    
T = Trace of Precipitation, MM = Missing Value Source: NWS Daily Summary

Daily Weather History Graph

Daily Weather History Graph

Search for Another Location

Airport:

Trip Planner

Search our weather history database for the weather conditions in past years. The results will help you decide how hot, cold, wet, or windy it might be!

Date:

Astronomy

Apr. 24, 2014 Rise Set
Actual Time 5:48 AM MDT 7:45 PM MDT
Civil Twilight 5:16 AM MDT 8:16 PM MDT
Nautical Twilight 4:37 AM MDT 8:55 PM MDT
Astronomical Twilight 3:55 AM MDT 9:38 PM MDT
Moon 3:14 AM MDT (4/24) 2:50 PM MDT (4/24)
Length of Visible Light 15h 00m
Length of Day
13h 56m
Waning Crescent, 24% of the Moon is Illuminated
Apr 24
Waning Crescent
Apr 29
New
May 6
First Quarter
May 14
Full
May 21
Last Quarter

Hourly Weather History & Observations

Time (MDT) Temp. Windchill Dew Point Humidity Pressure Visibility Wind Dir Wind Speed Gust Speed Precip Events Conditions
12:56 AM 45.0 °F 39.7 °F 30.9 °F 58% 29.79 in - West 10.4 mph - N/A   Unknown
1:56 AM 44.1 °F 38.1 °F 28.9 °F 55% 29.80 in - West 11.5 mph - N/A   Unknown
2:56 AM 44.1 °F 37.4 °F 28.9 °F 55% 29.81 in - West 13.8 mph - N/A   Unknown
3:56 AM 39.0 °F 31.4 °F 28.0 °F 65% 29.83 in - West 12.7 mph - N/A   Unknown
4:56 AM 39.0 °F 29.6 °F 26.1 °F 60% 29.83 in - West 18.4 mph - N/A   Unknown
5:56 AM 37.9 °F 29.6 °F 24.1 °F 57% 29.83 in - West 13.8 mph - N/A   Unknown
6:56 AM 42.1 °F 34.5 °F 24.1 °F 49% 29.85 in - West 15.0 mph - N/A   Unknown
7:56 AM 46.9 °F - 26.1 °F 44% 29.85 in - WNW 17.3 mph - N/A   Unknown
8:56 AM 51.1 °F - 28.0 °F 41% 29.85 in - WNW 27.6 mph 33.4 mph N/A   Unknown
9:56 AM 54.0 °F - 30.0 °F 40% 29.85 in - WNW 25.3 mph 33.4 mph N/A   Unknown
10:56 AM 55.9 °F - 30.0 °F 37% 29.84 in - West 34.5 mph 43.7 mph N/A   Unknown
11:56 AM 57.9 °F - 27.0 °F 31% 29.82 in - West 29.9 mph 38.0 mph N/A   Unknown
12:56 PM 59.0 °F - 24.1 °F 26% 29.80 in - WNW 25.3 mph 36.8 mph N/A   Unknown
1:56 PM 59.0 °F - 21.0 °F 23% 29.78 in - WNW 24.2 mph 33.4 mph N/A   Unknown
2:56 PM 61.0 °F - 21.9 °F 22% 29.77 in - NW 24.2 mph 33.4 mph N/A   Unknown
3:56 PM 60.1 °F - 21.9 °F 23% 29.77 in - WNW 24.2 mph 31.1 mph N/A   Unknown
4:56 PM 61.0 °F - 21.9 °F 22% 29.77 in - West 23.0 mph 31.1 mph N/A   Unknown
5:56 PM 60.1 °F - 23.0 °F 24% 29.77 in - NW 17.3 mph 28.8 mph N/A   Unknown
6:56 PM 57.0 °F - 25.0 °F 29% 29.78 in - NW 11.5 mph - N/A   Unknown
7:56 PM 53.1 °F - 27.0 °F 37% 29.78 in - NW 9.2 mph - N/A   Unknown
8:56 PM 51.1 °F - 28.0 °F 41% 29.76 in - North 12.7 mph - N/A   Unknown
9:56 PM 52.0 °F - 25.0 °F 35% 29.78 in - North 3.5 mph - N/A   Unknown
10:56 PM 50.0 °F - 27.0 °F 41% 29.79 in - WSW 4.6 mph - N/A   Unknown
11:56 PM 51.1 °F - 26.1 °F 38% 29.80 in - West 3.5 mph - N/A   Unknown